Location: ?astrovice
(49.6513°N, 14.9287°E)
Time: 06:14:08
(UTC+00:00)

Cosmos 2360 Rocket - Pass Details

Date: 09 April 2020
Orbit: 834 x 845 km, 71.0° (Epoch: 29 May)

Event Time Altitude Azimuth Distance (km) Brightness Sun altitude
Rises 23:13:48 0° 329° (NNW) 3,395 6.1 -32.3°
Reaches altitude 10° 23:16:16 10° 326° (NW) 2,458 5.2 -32.2°
Enters shadow 23:19:49 38° 309° (NW) 1,252 3.2 -32.2°
